Regional Weather Roundup
Issued by NWS

Home | Current Version | Previous Version | Graphics & Text | Print | Product List | Glossary On
Versions: 1 2 3 4 5 6 7 8 9 10 11 12 13 14 15 16 17 18 19 20 21 22 23 24 25 26 27 28 29 30 31 32 33 34 35 36 37 38 39 40 41 42 43 44 45 46 47 48 49 50
000
ASUS43 KDTX 240810
RWRMI
MICHIGAN HOURLY REGIONAL WEATHER ROUNDUP
NATIONAL WEATHER SERVICE DETROIT/PONTIAC MI
ISSUED BY NATIONAL WEATHER SERVICE GRAND RAPIDS MI
400 AM EDT WED MAY 24 2017

NOTE: "FAIR" INDICATES FEW OR NO CLOUDS BELOW 12,000 FEET WITH NO
SIGNIFICANT WEATHER AND/OR OBSTRUCTION TO VISIBILITY.

MIZ047>049-052>055-059>063-066>070-074>076-081>083-240900-
SOUTHEAST LOWER MICHIGAN

CITY           SKY/WX    TMP DP  RH WIND       PRES   REMARKS
ADRIAN         CLOUDY    56  52  86 NE7       29.62F
ALMA           CLOUDY    55  55  99 CALM      29.68S
ANN ARBOR      CLOUDY    56  54  93 NE7       29.63F
BAD AXE        MOCLDY    52  51  95 NE3       29.70F
DETROIT CITY   MOCLDY    58  51  78 NE8       29.64F
DETROIT        CLOUDY    60  52  74 NE10      29.64F
FLINT          CLOUDY    55  52  89 NE7       29.66F
GROSSE ILE     CLOUDY    58  51  76 NE10      29.62F
HILLSDALE      PTCLDY    54  50  87 E6        29.61F
HOWELL         PTCLDY    55  51  86 NE3       29.65F

CITY           SKY/WX    TMP DP  RH WIND       PRES   REMARKS
JACKSON        CLOUDY    54  52  93 NE5       29.63F
LANSING        CLOUDY    55  51  86 NE9       29.66F
MASON          PTCLDY    54  53  95 NE3       29.65F
MONROE         CLOUDY    59  51  73 NE6       29.62F
MT. CLEMENS    CLOUDY    57  51  81 NE8       29.64F
PONTIAC        MOCLDY    56  51  84 NE9       29.64F
PORT HOPE        N/A     53  51  93 E9        29.69F
PORT HURON     CLEAR     52  46  82 NE7       29.67F
TRI CITIES     MOCLDY    55  55 100 NE7       29.68F FOG
YPSILANTI      CLOUDY    59  54  83 NE7       29.64F
$$
MIZ043>046-050>051-056>058-064>065-071>073-077>080-240900-
SOUTHWEST LOWER MICHIGAN

CITY           SKY/WX    TMP DP  RH WIND       PRES   REMARKS
BATTLE CREEK   CLOUDY    56  53  90 NE10      29.62F
BENTON HARBOR  CLOUDY    58  52  80 NE7       29.60F
BIG RAPIDS     LGT RAIN  54  52  94 N3        29.68F
COLDWATER      CLOUDY    55  54  95 NE7       29.61F
HOLLAND        MOCLDY    57  54  89 NE5       29.64F
GRAND RAPIDS   CLOUDY    56  55  97 NE7       29.64F
KALAMAZOO      CLOUDY    57  53  86 NE6       29.62F
MARSHALL       CLOUDY    55  54  98 NE3       29.62F
MOUNT PLEASANT CLOUDY    54  53  97 CALM      29.68S FOG
MUSKEGON       LGT RAIN  56  53  90 N3        29.66F
STURGIS        MOCLDY    56  53  91 E7        29.59F
$$
MIZ016>042-240900-
NORTHERN LOWER MICHIGAN

CITY           SKY/WX    TMP DP  RH WIND       PRES   REMARKS
ALPENA         CLOUDY    47  47 100 NE7       29.74S FOG
BEAVER ISLAND  CLOUDY    49  46  91 NE3       29.73S
BELLAIRE       CLOUDY    51  49  93 N5        29.71F
CADILLAC       CLOUDY    52  51  97 E6        29.69S
CHARLEVOIX     LGT RAIN  49  49  99 E9        29.75F
GAYLORD        CLOUDY    51  48  89 CALM      29.72S FOG
HOUGHTON LAKE  FOG       52  52 100 E5        29.71S VSB 1
MANISTEE       LGT RAIN  53  52  96 E7        29.67F
OSCODA         FOG       50  49  97 W6        29.71F VSB 1/4
PELLSTON       LGT RAIN  49  46  90 E5        29.74S
TRAVERSE CITY  CLOUDY    50  48  93 E5        29.70S
LUDINGTON      CLOUDY    53  53 100 CALM      29.67S
$$
MIZ007>008-015-240900-
EASTERN UPPER MICHIGAN

CITY           SKY/WX    TMP DP  RH WIND       PRES   REMARKS
KINROSS        LGT RAIN  49  46  90 E7        29.75F
MACKINAC ISLAN LGT RAIN  47  47 100 NE8       29.73F
NEWBERRY       CLOUDY    45  44  97 NE3       29.74F
S. S. MARIE    CLOUDY    53  46  77 E5        29.75S
$$
MIZ004>006-011>014-085-240900-
CENTRAL UPPER MICHIGAN

CITY           SKY/WX    TMP DP  RH WIND       PRES   REMARKS
MANISTIQUE     CLOUDY    47  44  90 N9        29.73F
ESCANABA       LGT RAIN  46  45  96 N7        29.74F
MENOMINEE      CLOUDY    48  46  93 N7        29.73F
SAWYER-GWINN   CLOUDY    43  41  94 N10       29.77F
$$
MIZ001>003-009>011-084-240900-
WESTERN UPPER MICHIGAN

CITY           SKY/WX    TMP DP  RH WIND       PRES   REMARKS
IRON MOUNTAIN  LGT RAIN  47  43  86 N6        29.74F
HOUGHTON       CLOUDY    47  43  86 CALM      29.81F
COPPER HARBOR    N/A     45  42  89 CALM      29.82F
IRONWOOD       CLOUDY    43  41  93 CALM      29.82F
$$

ABBREVIATIONS USED IN REMARKS
   TC - TEMPERATURE IN CELSIUS
  WCI - WIND CHILL INDEX
   HX - HEAT INDEX
  VSB - VISIBILITY




USA.gov is the U.S. government's official web portal to all federal, state and local government web resources and services.